STARLINK-37624, 69833

Orbit data source: Space-Track

STARLINK-37624, 69833 is a payload satellite owned by SpaceX/Seattle (US) in LEO that was launched on Sun, 05 Jul 2026 UTC via an FALCON 9 launch vehicle from the Air Force Eastern Test Range (AFETR). Payload-class satellites include a variety of spacecraft equipped with specific instruments for various scientific and technological missions. These include communications satellites like Starlink; space stations such as the ISS; scientific satellites like the Hubble; Earth observation satellites from companies like Planet Labs, Umbra, and HawkEye 360; GPS; miniature CubeSats for education and research; and military/defense satellites.

Loading next visibility...
Identifier
69833, 2026-154Q
Orbit
LEO
Country
Flag of USUS
Related business
Manufacturer
SpaceX/Seattle
Mission
Operational spacecraft
Bus & Motor
STARLINK V2MO, Unknown motor
Mass
575 kg wet, ~530 kg dry
Launch date (UTC)
2026-07-05 (2 months ago)
Launch vehicle
FALCON 9
Launch site
Air Force Eastern Test Range (AFETR)
Object type
Payload
Rocket body
Debris
Shape & HBR
BOX + PAN, 17.7 m
Radar Cross Section
Large (>1 m²)

Expand to show TLE details & history
Last TLE update: 4 hours ago

TLE from 4 hours ago
0 STARLINK-37624
1 69833U 26154Q   26236.63058604  .00027551  00000-0  79728-3 0  9994
2 69833  53.1600  97.2887 0002967 106.2037 253.9293 15.35420231  9110
Epoch: 2026-08-24T15:08Z
TLE epoch observation values (Epoch: 2026-08-24T15:08:02.633Z)
Latitude
-0.00002°
Longitude
-102.63181°
Altitude
461.136 km
Speed
7.637 km/s
True Right ascension
06h 29m 09s
True Declination
0° 00' 00"
Sunlit
Object was in daylight at epoch
Visualization orbit readout
Latitude
Unknown
Longitude
Unknown
Altitude
Unknown
Speed
Unknown
Apparent Right ascension
Unknown
Apparent Declination
Unknown
Sunlit
N/A
Visualization observer readout
Local Sidereal Time
10:27:11
Azimuth
Unknown
Elevation
Unknown
Doppler factor
Unknown
Orbital elements
Apogee altitude
461.958 km
Perigee altitude
457.901 km
Semi-major axis
6,838.067 km
Eccentricity
0.0003
Inclination
53.16°
RAAN
97.2887°
Arg. of periapsis
106.2037°
True anomaly
253.89663°
Mean anomaly
253.9293°
Eccentric anomaly
253.91297°
Mean motion
3.83834 °/min
Orbital period
93.79 mins
BSTAR
0.00079728
Loading maneuver chart data...
Computing Atmospheric mass density...
Loading historical data...
Loading historical data...
Loading historical data...
Loading historical data...
Loading historical data...
Loading historical data...
Loading historical data...

Documentation

Showing up to 5 results
|